Content
SEND FEEDBACK

Daily
Averages
Monthly
Summary
United States of America

BULVERDE, TEXAS


Home > North America > United States > Texas
Elevation: 1100 feet     Latitude: 29 45N     Longitude: 098 27W

WEATHER
 
SELECT A DAY
Number of Records: 202,975;   Date Range: 1/1/95 - 10/21/14
 
SHARE

PRINT THIS DATA

[ ← Previous Day ]
WEATHER ALMANAC - FEBRUARY 13, 2013
[ Next Day → ]
[ °C ]   °F
Weather ElementAverageHighLow
Temperature52.5 °F66.9 °F (3:51 pm)39.9 °F (6:51 am)
Dewpoint29.6 °F33.1 °F (7:51 am)21.9 °F (2:51 pm)
Humidity45.6 %73 % (6:51 am)19 % (2:51 pm)
Barometer30.06 in30.13 in (9:51 am)29.99 in (3:51 pm)
Wind Speed5.4 mph11.5 mph (2:51 am)
Wind Gust21.9 mph (3:51 am)
Weather ElementAverage
Visibility10 mi
Wind DirectionSSE (153.9 °)

Weather ElementTotal
Precipitation---
Heating Degree Days11.6 (Base 65)
Growing Degree Days3.4 (Base 50)
Averaged from 23 records on February 13, 2013
WEATHER CONDITIONS BREAKOUT
WIND DIRECTION BREAKOUT
WEATHER BY HOUR - FEBRUARY 13, 2013
[ °C ]   °F
Local TimeTemperatureDewpointHumidityBarometerVisibilityWind DirectionWind SpeedGust SpeedPrecipitationEventsConditions
1:51 AM46.9 °F32.0 °F56 %30.06 in10.0 miNNW (340°)10.4 mphOvercast
2:51 AM46.0 °F32.0 °F58 %30.05 in10.0 miNNW (340°)11.5 mph19.6 mphOvercast
3:51 AM44.1 °F32.0 °F63 %30.05 in10.0 miNNW (340°)11.5 mph21.9 mphOvercast
4:51 AM42.1 °F30.9 °F65 %30.06 in10.0 miNNW (340°)6.9 mphMostly Cloudy
5:51 AM41.0 °F32.0 °F70 %30.08 in10.0 miNNW (330°)6.9 mphPartly Cloudy
6:51 AM39.9 °F32.0 °F73 %30.09 in10.0 miNNW (340°)9.2 mphScattered Clouds
7:51 AM41.0 °F33.1 °F73 %30.10 in10.0 miNNW (340°)8.1 mphScattered Clouds
8:51 AM46.0 °F33.1 °F61 %30.12 in10.0 miNNW (340°)8.1 mphPartly Cloudy
9:51 AM51.1 °F32.0 °F48 %30.13 in10.0 miNorth (10°)6.9 mphScattered Clouds
10:51 AM55.9 °F33.1 °F42 %30.13 in10.0 miNNW (340°)6.9 mphPartly Cloudy
11:51 AM59.0 °F30.9 °F35 %30.11 in10.0 miVariable3.5 mphClear
12:51 PM61.0 °F30.0 °F31 %30.08 in10.0 miVariable3.5 mphClear
1:51 PM64.0 °F30.9 °F29 %30.04 in10.0 miVariable4.6 mphClear
2:51 PM66.0 °F21.9 °F19 %30.01 in10.0 miWNW (300°)6.9 mphClear
3:51 PM66.9 °F23.0 °F19 %29.99 in10.0 miNorth (10°)3.5 mphClear
4:51 PM66.9 °F23.0 °F19 %29.99 in10.0 miNNE (20°)4.6 mphClear
5:51 PM63.0 °F23.0 °F22 %29.99 in10.0 miENE (60°)4.6 mphClear
6:51 PM55.9 °F28.0 °F34 %30.01 in10.0 miEast (90°)6.9 mphClear
7:51 PM57.0 °F28.0 °F33 %30.03 in10.0 miCalmClear
8:51 PM52.0 °F28.9 °F41 %30.04 in10.0 miCalmClear
9:51 PM48.0 °F30.0 °F50 %30.06 in10.0 miCalmClear
10:51 PM48.9 °F30.9 °F50 %30.07 in10.0 miCalmClear
11:51 PM45.0 °F30.9 °F58 %30.08 in10.0 miCalmClear
Hourly data recorded from KSAT, located miles away from Bulverde, Texas







STORIES FROM OUR PARTNERS